User: anonymous   Login
Location: Terra Rouge Observatory
(46.0000°N, 62.7500°W)
Time: 08:07:39
(UTC-03:00)
Language:

Landsat 5 - Orbit

View from above orbital plane
View from above orbital plane
View from above satellite
View from above satellite

Ground track
Ground track

The orbit data is extracted from the following two-line orbital elements,

1 14780U 84021A   17083.85016288 +.00000521 +00000-0 +54067-4 0  9996
2 14780 098.0309 194.2204 0092440 087.1475 274.0318 14.91432018287762
Epoch (UTC): 24 March 2017 20:24:14
Eccentricity: 0.0092440
inclination: 98.0309°
perigee height: 529 km
apogee height: 658 km
right ascension of ascending node: 194.2204°
argument of perigee: 87.1475°
revolutions per day: 14.91432018
mean anomaly at epoch: 274.0318°
orbit number at epoch: 28776

The dashed part of the orbit path shows where the satellite is in the earth's shadow,  

DLR